GW2978 Weather Reports


time (UTC)temp
C
wind
direction
speed
KPH
gust
KPH
rain 1hr
cm
rain 24hr
cm
rain mn
cm
humidity
%
barometer
mb
20260503060256 2 188 0.0 0.0 0.00 0.00 0.00 86 1015.1
20260503054744 2 192 0.0 0.0 0.00 0.00 0.00 86 1015.3
20260503054240 2 192 0.0 0.0 0.00 0.00 0.00 86 1015.3
20260503053738 2 192 0.0 1.6 0.00 0.00 0.00 86 1015.1
20260503053237 2 194 0.0 1.6 0.00 0.00 0.00 86 1015.1
20260503052733 2 200 0.0 1.6 0.00 0.00 0.00 86 1015.1
20260503052230 2 195 1.6 1.6 0.00 0.00 0.00 86 1014.8
20260503051724 2 201 1.6 1.6 0.00 0.00 0.00 85 1014.8
20260503051223 2 196 0.0 1.6 0.00 0.00 0.00 85 1014.7
20260503050719 2 158 1.6 1.6 0.00 0.00 0.00 84 1014.9
20260503050215 2 162 1.6 1.6 0.00 0.00 0.00 84 1014.8
20260503045713 2 143 1.6 1.6 0.00 0.00 0.00 84 1015.0
20260503045210 2 184 0.0 1.6 0.00 0.00 0.00 83 1014.9
20260503044707 2 162 1.6 1.6 0.00 0.00 0.00 83 1014.8
20260503044204 2 180 0.0 0.0 0.00 0.00 0.00 83 1014.9
20260503043700 2 194 0.0 0.0 0.00 0.00 0.00 83 1014.8
20260503043158 2 193 0.0 3.2 0.00 0.00 0.00 82 1014.9
20260503042654 3 184 0.0 0.0 0.00 0.00 0.00 82 1014.8
20260503042151 3 166 1.6 1.6 0.00 0.00 0.00 81 1014.7
20260503041647 3 194 0.0 1.6 0.00 0.00 0.00 81 1014.7
20260503041145 3 199 0.0 0.0 0.00 0.00 0.00 81 1014.6
20260503040642 4 170 1.6 1.6 0.00 0.00 0.00 81 1014.5
20260503040140 4 82 3.2 4.8 0.00 0.00 0.00 81 1014.5
20260503035636 3 70 3.2 4.8 0.00 0.00 0.00 80 1014.7
20260503035134 3 150 1.6 3.2 0.00 0.00 0.00 80 1014.6
20260503034631 3 156 1.6 1.6 0.00 0.00 0.00 80 1014.7
20260503034128 3 152 1.6 3.2 0.00 0.00 0.00 79 1014.6
20260503033625 4 167 0.0 1.6 0.00 0.00 0.00 79 1014.7
20260503033122 4 167 0.0 1.6 0.00 0.00 0.00 78 1014.5
20260503032621 4 136 3.2 3.2 0.00 0.00 0.00 78 1014.6
20260503032119 4 167 1.6 1.6 0.00 0.00 0.00 77 1014.3
20260503031616 4 143 1.6 1.6 0.00 0.00 0.00 76 1014.5
20260503031113 4 174 0.0 0.0 0.00 0.00 0.00 76 1014.3
20260503030609 5 165 0.0 1.6 0.00 0.00 0.00 75 1014.4
20260503030106 5 157 1.6 1.6 0.00 0.00 0.00 74 1014.1
20260503025603 5 172 0.0 3.2 0.00 0.00 0.00 73 1014.1
20260503025101 5 166 0.0 3.2 0.00 0.00 0.00 73 1013.9
20260503024557 5 159 1.6 1.6 0.00 0.00 0.00 72 1013.9
20260503024054 6 161 1.6 1.6 0.00 0.00 0.00 71 1013.9
20260503023551 5 141 1.6 3.2 0.00 0.00 0.00 70 1013.9
20260503023048 6 168 0.0 0.0 0.00 0.00 0.00 69 1013.9
20260503022544 6 151 1.6 1.6 0.00 0.00 0.00 69 1013.9
20260503022039 6 116 3.2 3.2 0.00 0.00 0.00 67 1013.8
20260503021536 6 136 3.2 3.2 0.00 0.00 0.00 66 1013.7
20260503021033 6 127 3.2 3.2 0.00 0.00 0.00 65 1014.0
20260503020530 6 172 0.0 0.0 0.00 0.00 0.00 63 1014.0
20260503020027 7 166 0.0 1.6 0.00 0.00 0.00 62 1014.0
20260503015524 7 163 0.0 1.6 0.00 0.00 0.00 61 1013.8
20260503015021 7 171 0.0 1.6 0.00 0.00 0.00 60 1013.9
20260503014517 7 171 0.0 0.0 0.00 0.00 0.00 59 1013.7
20260503014015 8 178 0.0 0.0 0.00 0.00 0.00 58 1013.7
20260503013512 8 148 0.0 1.6 0.00 0.00 0.00 56 1013.4
20260503013009 8 143 1.6 3.2 0.00 0.00 0.00 56 1013.5
20260503012507 8 176 0.0 0.0 0.00 0.00 0.00 55 1013.6
20260503012003 8 173 0.0 1.6 0.00 0.00 0.00 54 1013.4
20260503011500 9 176 0.0 0.0 0.00 0.00 0.00 53 1013.3
20260503010957 9 171 0.0 1.6 0.00 0.00 0.00 53 1013.2
20260503010453 10 139 1.6 3.2 0.00 0.00 0.00 53 1013.3
20260503005951 10 152 0.0 1.6 0.00 0.00 0.00 52 1012.9
20260503005448 10 233 0.0 0.0 0.00 0.00 0.00 51 1013.2
20260503004944 10 191 0.0 1.6 0.00 0.00 0.00 51 1013.1
20260503004441 10 179 0.0 1.6 0.00 0.00 0.00 50 1013.0
20260503003939 10 188 0.0 0.0 0.00 0.00 0.00 49 1012.8
20260503003436 11 190 0.0 3.2 0.00 0.00 0.00 49 1012.9
20260503002933 11 161 3.2 4.8 0.00 0.00 0.00 48 1012.8
20260503002430 11 62 1.6 9.7 0.00 0.00 0.00 48 1012.6
20260503001926 11 239 1.6 6.4 0.00 0.00 0.00 47 1012.7
20260503001423 11 97 3.2 4.8 0.00 0.00 0.00 47 1012.6
20260503000920 11 192 0.0 3.2 0.00 0.00 0.00 47 1012.5
20260503000417 12 319 3.2 6.4 0.00 0.00 0.00 46 1012.4
20260502235914 12 41 3.2 14.5 0.00 0.00 0.00 46 1012.3
20260502235411 12 258 3.2 4.8 0.00 0.00 0.00 45 1012.3
20260502234909 12 200 1.6 6.4 0.00 0.00 0.00 45 1012.0
20260502234405 12 56 3.2 9.7 0.00 0.00 0.00 45 1011.9
20260502233902 13 250 0.0 11.3 0.00 0.00 0.00 44 1011.8
20260502233357 13 216 1.6 4.8 0.00 0.00 0.00 43 1011.8
20260502232855 13 229 3.2 12.9 0.00 0.00 0.00 43 1011.3
20260502232351 13 252 3.2 11.3 0.00 0.00 0.00 42 1011.5
20260502231848 14 284 3.2 9.7 0.00 0.00 0.00 42 1011.2
20260502231346 15 214 6.4 12.9 0.00 0.00 0.00 41 1011.2
20260502230844 15 338 6.4 11.3 0.00 0.00 0.00 40 1011.2
20260502230342 15 182 3.2 12.9 0.00 0.00 0.00 40 1011.2
20260502225838 15 350 6.4 14.5 0.00 0.00 0.00 40 1011.2
20260502225335 15 239 4.8 12.9 0.00 0.00 0.00 40 1011.2
20260502224832 15 269 4.8 11.3 0.00 0.00 0.00 40 1011.3
20260502224328 15 216 3.2 14.5 0.00 0.00 0.00 39 1011.0
20260502223825 15 214 4.8 6.4 0.00 0.00 0.00 40 1011.3
20260502223323 15 189 0.0 22.5 0.00 0.00 0.00 39 1011.1
20260502222821 16 281 12.9 22.5 0.00 0.00 0.00 38 1011.1
20260502222318 15 328 4.8 17.7 0.00 0.00 0.00 39 1011.1
20260502221814 15 278 3.2 16.1 0.00 0.00 0.00 39 1011.0
20260502221310 15 25 11.3 16.1 0.00 0.00 0.00 39 1011.0
20260502220808 16 265 9.7 20.9 0.00 0.00 0.00 38 1011.0
20260502220303 16 322 8.0 11.3 0.00 0.00 0.00 39 1010.8
20260502215800 15 327 9.7 17.7 0.00 0.00 0.00 39 1010.5
20260502215257 15 325 11.3 25.7 0.00 0.00 0.00 38 1010.4
20260502214754 15 303 3.2 11.3 0.00 0.00 0.00 38 1010.5
20260502214251 16 343 6.4 20.9 0.00 0.00 0.00 37 1010.5
20260502213748 17 293 8.0 17.7 0.00 0.00 0.00 36 1010.2
20260502213245 16 107 3.2 17.7 0.00 0.00 0.00 36 1010.2
20260502212744 16 29 17.7 25.7 0.00 0.00 0.00 36 1010.1
20260502212242 17 312 17.7 24.1 0.00 0.00 0.00 37 1010.0
20260502211737 16 118 6.4 16.1 0.00 0.00 0.00 37 1009.8
20260502211234 16 277 6.4 12.9 0.00 0.00 0.00 37 1009.9
20260502210731 16 37 14.5 17.7 0.00 0.00 0.00 36 1010.1
20260502210229 17 355 9.7 22.5 0.00 0.00 0.00 36 1009.8
20260502205726 17 218 3.2 12.9 0.00 0.00 0.00 35 1009.6
20260502205222 18 141 9.7 20.9 0.00 0.00 0.00 34 1009.4
20260502204719 18 259 9.7 17.7 0.00 0.00 0.00 35 1009.5
20260502204217 18 246 16.1 17.7 0.00 0.00 0.00 35 1009.7
20260502203714 18 197 0.0 11.3 0.00 0.00 0.00 35 1009.3
20260502203212 18 343 12.9 16.1 0.00 0.00 0.00 35 1009.5
20260502202706 17 218 3.2 4.8 0.00 0.00 0.00 35 1009.7
20260502202205 18 10 6.4 9.7 0.00 0.00 0.00 34 1009.4
20260502201702 18 226 1.6 11.3 0.00 0.00 0.00 33 1009.4
20260502201158 18 126 4.8 11.3 0.00 0.00 0.00 34 1009.6
20260502200654 18 236 9.7 16.1 0.00 0.00 0.00 35 1009.4
20260502200150 17 196 1.6 11.3 0.00 0.00 0.00 34 1010.0
20260502195649 18 222 3.2 12.9 0.00 0.00 0.00 35 1009.8
20260502195145 18 236 16.1 20.9 0.00 0.00 0.00 34 1009.8
20260502194642 18 323 12.9 17.7 0.00 0.00 0.00 34 1009.7
20260502194138 18 339 11.3 16.1 0.00 0.00 0.00 34 1010.0
20260502193635 18 200 3.2 20.9 0.00 0.00 0.00 34 1009.9
20260502193132 18 18 11.3 14.5 0.00 0.00 0.00 34 1009.9
20260502192627 18 212 8.0 17.7 0.00 0.00 0.00 33 1010.1
20260502192125 18 239 3.2 4.8 0.00 0.00 0.00 34 1010.0
20260502191622 17 295 9.7 17.7 0.00 0.00 0.00 32 1010.1
20260502191119 18 55 6.4 11.3 0.00 0.00 0.00 33 1010.1
20260502190617 17 33 4.8 6.4 0.00 0.00 0.00 33 1010.4
20260502190114 17 280 1.6 6.4 0.00 0.00 0.00 34 1010.4
20260502185609 17 170 1.6 9.7 0.00 0.00 0.00 33 1010.2
20260502185106 17 5 11.3 17.7 0.00 0.00 0.00 34 1010.5
20260502184602 17 12 9.7 16.1 0.00 0.00 0.00 35 1010.5
20260502184057 17 204 1.6 4.8 0.00 0.00 0.00 36 1010.4
20260502183554 17 250 6.4 16.1 0.00 0.00 0.00 37 1010.5
20260502183050 17 195 3.2 14.5 0.00 0.00 0.00 39 1010.6
20260502182546 17 255 3.2 11.3 0.00 0.00 0.00 39 1010.4
20260502182042 17 169 4.8 11.3 0.00 0.00 0.00 40 1010.5
20260502181540 16 132 4.8 4.8 0.00 0.00 0.00 41 1010.6
20260502181038 16 161 0.0 11.3 0.00 0.00 0.00 42 1010.8
20260502180535 16 182 11.3 14.5 0.00 0.00 0.00 41 1010.8
20260502170454 14 73 6.4 9.7 0.00 0.00 0.00 42 1012.0
20260502163937 13 57 8.0 12.9 0.00 0.00 0.00 42 1012.3
20260502163433 13 76 4.8 6.4 0.00 0.00 0.00 41 1012.6
20260502162931 14 145 3.2 12.9 0.00 0.00 0.00 42 1012.7
20260502162428 13 53 3.2 4.8 0.00 0.00 0.00 44 1012.9
20260502161925 13 293 4.8 4.8 0.00 0.00 0.00 44 1012.6
20260502161421 13 104 3.2 9.7 0.00 0.00 0.00 44 1013.0
20260502160919 12 73 6.4 9.7 0.00 0.00 0.00 44 1013.0
20260502160417 12 171 1.6 3.2 0.00 0.00 0.00 44 1012.8
20260502151855 11 287 4.8 9.7 0.00 0.00 0.00 46 1013.0
20260502151351 11 355 11.3 14.5 0.00 0.00 0.00 46 1013.1
20260502150849 11 164 1.6 3.2 0.00 0.00 0.00 46 1013.1
20260502150345 11 28 9.7 12.9 0.00 0.00 0.00 46 1013.4
20260502130734 10 190 0.0 3.2 0.00 0.00 0.00 59 1012.9
20260502130231 11 203 1.6 4.8 0.00 0.00 0.00 60 1012.8
20260502123717 10 217 1.6 3.2 0.00 0.00 0.00 63 1012.5
20260502123214 10 179 0.0 3.2 0.00 0.00 0.00 63 1012.6
20260502122710 10 202 0.0 3.2 0.00 0.00 0.00 64 1012.5
20260502122207 10 343 3.2 4.8 0.00 0.00 0.00 65 1012.5
20260502121705 10 59 1.6 4.8 0.00 0.00 0.00 67 1012.2
20260502121203 10 161 0.0 3.2 0.00 0.00 0.00 67 1012.3
20260502120659 10 27 3.2 4.8 0.00 0.00 0.00 68 1011.9
20260502120156 10 254 1.6 3.2 0.00 0.00 0.00 69 1012.3
20260502115654 10 77 1.6 3.2 0.00 0.00 0.00 71 1012.0
20260502115149 10 140 1.6 3.2 0.00 0.00 0.00 72 1012.2
20260502114646 10 176 0.0 0.0 0.00 0.00 0.00 73 1012.3
20260502114143 10 167 0.0 3.2 0.00 0.00 0.00 73 1012.1
20260502113640 10 175 0.0 1.6 0.00 0.00 0.00 73 1012.4
20260502113138 10 126 1.6 3.2 0.00 0.00 0.00 73 1012.1
20260502112636 10 199 0.0 1.6 0.00 0.00 0.00 74 1011.9
20260502112133 10 10 3.2 4.8 0.00 0.00 0.00 74 1012.1
20260502111631 10 147 1.6 4.8 0.00 0.00 0.00 75 1012.2
20260502111128 10 149 0.0 1.6 0.00 0.00 0.00 75 1012.1
20260502110626 10 90 1.6 3.2 0.00 0.00 0.00 75 1011.8
20260502110123 10 171 0.0 0.0 0.00 0.00 0.00 75 1011.8
20260502105620 10 173 0.0 0.0 0.00 0.00 0.00 75 1012.0
20260502105117 10 159 0.0 1.6 0.00 0.00 0.00 75 1011.7
20260502104614 10 163 0.0 3.2 0.00 0.00 0.00 75 1011.7
20260502104112 10 172 0.0 0.0 0.00 0.00 0.00 75 1011.8
20260502103609 10 175 0.0 0.0 0.00 0.00 0.00 75 1011.7
20260502103108 10 180 0.0 0.0 0.00 0.00 0.00 74 1011.5
20260502102603 10 177 0.0 1.6 0.00 0.00 0.00 74 1011.4
20260502102101 10 168 0.0 1.6 0.00 0.00 0.00 74 1011.7
20260502101558 10 176 0.0 0.0 0.00 0.00 0.00 73 1011.8
20260502101057 10 177 0.0 0.0 0.00 0.00 0.00 73 1011.5
20260502100555 10 152 0.0 0.0 0.00 0.00 0.00 73 1011.5
20260502091529 11 204 0.0 1.6 0.00 0.00 0.00 72 1011.9
20260502091027 11 199 0.0 3.2 0.00 0.00 0.00 72 1011.9
20260502090523 11 146 0.0 0.0 0.00 0.00 0.00 72 1011.9
20260502071418 12 19 1.6 3.2 0.00 0.00 0.00 76 1011.2
20260502070916 11 153 0.0 6.4 0.00 0.00 0.00 77 1011.1
20260502070414 12 291 0.0 4.8 0.00 0.00 0.00 77 1010.8
20260502065912 12 177 3.2 6.4 0.00 0.00 0.00 77 1010.8
20260502065411 12 335 3.2 4.8 0.00 0.00 0.00 78 1010.9
20260502064908 12 182 1.6 4.8 0.00 0.00 0.00 79 1011.1
20260502064406 12 352 4.8 6.4 0.00 0.00 0.00 80 1011.1
20260502063903 11 152 3.2 6.4 0.00 0.00 0.00 81 1011.1
20260502063400 12 238 1.6 3.2 0.00 0.00 0.00 82 1011.2